"Pseudo-MPEC" for P110Jqk

Created 2020 May 26 19:07:18 UT using Find_Orb

Click here for an explanation of pseudo-MPECs

 
 Astrometry: 
     P110Jqk  C2020 05 21ep-noTUlMCa\QaiO)F7UqAstrometrybredacted;fAlccu*K`!XF51
     P110Jqk  C2020 05 21TJgd:-#clickuj/6Y^@YOOP7hereoK]34X=:rL'C9k_.R=)v?/d9F51
     P110Jqk  C2020 05 21imi?^8kAKYSiMKaR*9wDGP;*LA$\_=%R`D6yi1for$#dmP5/PBmDF51
     P110Jqk  C2020 05 21?7ko,PvMTXfK]2[.explanatione%?i\]7fsq;m;Z_`*kjZsD8_pF51
     P110Jqk ^C2020 05 22.32095815 50 40.866-28 58 51.13   ~5M97 21.66GVNEOCP568
     P110Jqk ^C2020 05 22.32190415 50 40.807-28 58 43.12   ~5M97 21.56GVNEOCP568
     P110Jqk ^C2020 05 22.32285215 50 40.749-28 58 35.16   ~5M97 21.54GVNEOCP568
     P110Jqk ^C2020 05 26.37955015 47 54.854-19 22 47.73   ~5QIq 21.47GVNEOCP568
     P110Jqk ^C2020 05 26.38049815 47 54.805-19 22 39.67   ~5QIq 21.49GVNEOCP568
     P110Jqk ^C2020 05 26.38145615 47 54.752-19 22 31.55   ~5QIq 21.37GVNEOCP568

Station data:
(568) Mauna Kea  (N19.826116 W155.472200)  US/Hawaii.
(F51) Pan-STARRS 1, Haleakala  (N20.707235 W156.255910)  US/Hawaii.
   Observers N. Primak, A. Schultz, S. Watters, J. Thiel, T. Goggia. Measurer
   PS1 Science Consortium. 1.8-m Ritchey-Chrétien + CCD.

Orbital elements:  P110Jqk
   Perihelion 2020 May 16.088529 +/- 0.382 TT =  2:07:28 (JD 2458985.588529)
Epoch 2020 May 26.0 TT = JDT 2458995.5   Earth MOID: 0.2247   AutoNEOCP
M   5.08719596 +/- 0.32             (J2000 ecliptic)
n   0.51326346 +/- 0.0139           Peri.  352.12733 +/- 0.30
a   1.54493122 +/- 0.0279           Node   243.99332 +/- 0.017
e   0.2001290 +/- 0.0116            Incl.   31.95140 +/- 0.6
P   1.92/701.38d           H 24.0   G  0.15   U  9.9  
q 1.23574560 +/- 0.00452    Q 1.85411684 +/- 0.0525
From 10 observations 2020 May 21-26; mean residual 0".08
Residuals in arcseconds: 
200521 F51  .18-  .08-    200522 568  .05+  .08-    200526 568  .01+  .01+    
200521 F51  .12+  .04-    200522 568  .01+  .02+    200526 568  .03-  .01+    
200521 F51  .02-  .23+    200522 568  .02-  .06+    
200521 F51  .05+  .12-    200526 568  .01+  .02-    

Ephemerides (geocentric):
Date (UTC) HH   RA              Dec         delta   r     elong  mag " sig PA
---- -- -- --  -------------   -----------  ------ ------ -----  --- ---- ---
2020 05 26 19  15 47 39.578   -18 24 10.82  .22614 1.2380 172.9 21.7 .388 165
2020 05 26 20  15 47 38.109   -18 18 18.47  .22618 1.2380 172.8 21.7 .373 166
2020 05 26 21  15 47 36.643   -18 12 26.28  .22623 1.2380 172.8 21.7 .358 168
2020 05 26 22  15 47 35.182   -18 06 34.25  .22627 1.2380 172.7 21.7 .342 169
2020 05 26 23  15 47 33.725   -18 00 42.37  .22632 1.2380 172.6 21.7 .327 170
2020 05 27 00  15 47 32.272   -17 54 50.65  .22637 1.2380 172.5 21.7 .310 172
2020 05 27 01  15 47 30.823   -17 48 59.10  .22642 1.2381 172.4 21.7 .294 173
2020 05 27 02  15 47 29.378   -17 43 07.71  .22647 1.2381 172.3 21.7 .278 175
2020 05 27 03  15 47 27.936   -17 37 16.49  .22652 1.2381 172.2 21.7 .261 178
2020 05 27 04  15 47 26.499   -17 31 25.44  .22657 1.2381 172.1 21.7 .244   0
2020 05 27 05  15 47 25.066   -17 25 34.57  .22662 1.2381 172.0 21.7 .228   3
2020 05 27 06  15 47 23.638   -17 19 43.88  .22668 1.2382 171.9 21.7 .212   7
2020 05 27 07  15 47 22.213   -17 13 53.36  .22673 1.2382 171.8 21.7 .197  11
2020 05 27 08  15 47 20.792   -17 08 03.03  .22678 1.2382 171.8 21.7 .182  16
2020 05 27 09  15 47 19.375   -17 02 12.89  .22684 1.2382 171.7 21.7 .169  22
2020 05 27 10  15 47 17.963   -16 56 22.93  .22690 1.2382 171.6 21.7 .157  29
2020 05 27 11  15 47 16.554   -16 50 33.17  .22695 1.2382 171.5 21.7 .148  38
2020 05 27 12  15 47 15.150   -16 44 43.60  .22701 1.2383 171.4 21.8 .143  47
2020 05 27 13  15 47 13.749   -16 38 54.23  .22707 1.2383 171.3 21.8 .141  57
2020 05 27 14  15 47 12.353   -16 33 05.05  .22713 1.2383 171.2 21.8 .144  67
2020 05 27 15  15 47 10.961   -16 27 16.08  .22719 1.2383 171.1 21.8 .151  77
2020 05 27 16  15 47 09.573   -16 21 27.32  .22725 1.2383 171.0 21.8 .162  86
2020 05 27 17  15 47 08.189   -16 15 38.76  .22731 1.2384 170.9 21.8 .176  93
2020 05 27 18  15 47 06.809   -16 09 50.41  .22738 1.2384 170.8 21.8 .194 100
2020 05 27 19  15 47 05.433   -16 04 02.28  .22744 1.2384 170.7 21.8 .214 105
2020 05 27 20  15 47 04.062   -15 58 14.36  .22751 1.2384 170.6 21.8 .236 110
2020 05 27 21  15 47 02.694   -15 52 26.66  .22757 1.2384 170.5 21.8 .260 114
2020 05 27 22  15 47 01.331   -15 46 39.19  .22764 1.2385 170.4 21.8 .285 117
2020 05 27 23  15 46 59.972   -15 40 51.93  .22770 1.2385 170.3 21.8 .311 120
2020 05 28 00  15 46 58.617   -15 35 04.91  .22777 1.2385 170.2 21.8 .339 122
2020 05 28 01  15 46 57.266   -15 29 18.11  .22784 1.2385 170.1 21.8 .368 124
2020 05 28 02  15 46 55.919   -15 23 31.55  .22791 1.2385 170.0 21.8 .397 126
2020 05 28 03  15 46 54.576   -15 17 45.22  .22798 1.2385 169.9 21.8 .428 128
2020 05 28 04  15 46 53.238   -15 11 59.13  .22805 1.2386 169.8 21.8 .459 129
2020 05 28 05  15 46 51.903   -15 06 13.27  .22812 1.2386 169.7 21.8 .491 131
2020 05 28 06  15 46 50.573   -15 00 27.66  .22819 1.2386 169.6 21.8 .524 132
2020 05 28 07  15 46 49.247   -14 54 42.30  .22827 1.2386 169.5 21.8 .557 133
2020 05 28 08  15 46 47.925   -14 48 57.18  .22834 1.2386 169.4 21.8 .591 134
2020 05 28 09  15 46 46.608   -14 43 12.31  .22842 1.2387 169.3 21.8 .626 135
2020 05 28 10  15 46 45.294   -14 37 27.70  .22849 1.2387 169.2 21.8 .662 135
2020 05 28 11  15 46 43.985   -14 31 43.34  .22857 1.2387 169.1 21.9 .698 136
2020 05 28 12  15 46 42.680   -14 25 59.24  .22865 1.2387 169.0 21.9 .735 137
2020 05 28 13  15 46 41.379   -14 20 15.40  .22873 1.2387 168.9 21.9 .773 137
2020 05 28 14  15 46 40.082   -14 14 31.82  .22880 1.2388 168.8 21.9 .811 138
2020 05 28 15  15 46 38.790   -14 08 48.50  .22888 1.2388 168.7 21.9 .851 139
2020 05 28 16  15 46 37.501   -14 03 05.46  .22897 1.2388 168.6 21.9 .890 139
2020 05 28 17  15 46 36.217   -13 57 22.68  .22905 1.2388 168.5 21.9 .931 139
2020 05 28 18  15 46 34.937   -13 51 40.18  .22913 1.2388 168.4 21.9 .972 140